GFSCGP_850_spd_057.txt.gz
Wind_Speed
2 4 4 3 4 2 3 3 3 3 2 11 14 18 18 17 17 14 12 12 12 12 10 14 16 15 15 11 11 14 16 20 25 32 38 46 51 49 46 41 37 29 32 43
2 6 5 2 3 4 5 4 3 5 5 7 15 19 20 18 14 15 11 8 15 17 15 13 14 16 18 18 16 13 14 19 23 24 28 36 39 39 44 37 36 37 42 46
3 2 6 4 4 5 5 5 3 5 5 9 9 11 1 9 2 6 10 11 12 15 14 12 14 17 19 21 23 22 15 14 18 22 25 29 31 33 35 41 42 45 46 50
4 2 6 6 5 6 5 7 3 5 8 7 4 6 8 2 7 4 5 7 12 17 13 15 15 17 16 18 22 24 23 19 17 18 24 29 32 37 37 34 43 42 49 49
2 3 3 4 2 7 0 4 3 6 9 5 6 5 1 6 6 3 10 12 10 7 8 10 12 13 14 17 18 20 24 24 21 19 21 26 33 38 38 39 43 44 43 43
9 1 4 6 3 2 3 1 3 1 2 5 0 4 3 6 5 4 10 7 8 6 7 12 14 20 21 19 19 19 21 24 25 24 23 24 32 38 42 44 44 46 48 48
3 3 2 3 5 3 2 3 4 3 3 3 1 9 11 9 9 13 14 13 6 9 11 17 23 24 24 21 21 22 22 23 24 25 27 24 27 35 42 45 47 45 42 40
7 7 6 3 3 3 4 3 3 4 4 7 5 10 3 1 6 14 14 15 14 15 17 20 24 23 21 21 23 24 25 26 25 24 26 27 26 31 38 42 42 42 41 40
3 3 1 3 3 5 5 5 2 3 5 7 7 11 14 11 8 7 13 9 10 16 22 22 25 19 17 23 26 29 29 29 27 27 25 27 27 26 34 37 33 36 38 36
2 5 3 1 3 3 6 9 3 3 4 6 7 16 13 13 11 12 7 7 10 18 23 26 23 19 17 22 27 29 30 31 29 29 29 27 28 27 28 35 36 32 32 26
3 4 4 2 8 12 5 4 2 2 4 5 8 7 2 12 12 11 11 12 18 24 24 24 24 20 20 23 23 29 33 31 27 28 29 29 28 28 26 32 32 26 23 21
1 2 8 12 7 2 3 9 10 7 6 5 5 15 11 13 5 12 26 31 26 24 24 25 27 26 23 22 23 24 30 28 23 25 28 30 28 28 29 31 33 29 27 25
4 3 5 6 4 3 4 8 9 8 2 15 12 13 5 12 19 30 27 28 26 25 27 29 29 28 27 24 24 25 29 29 24 22 26 29 29 30 31 32 36 34 32 29
2 5 10 10 10 2 8 11 12 11 6 19 18 32 24 26 22 21 25 24 24 26 30 30 28 28 26 25 26 27 34 32 28 23 25 30 30 31 31 32 35 35 32 30
6 9 14 18 19 17 20 21 20 19 23 16 24 24 25 22 20 22 23 23 27 30 31 29 29 27 27 28 29 28 32 32 29 26 26 31 31 32 34 34 37 32 30 29
4 3 3 12 15 17 19 20 19 19 22 23 28 28 25 25 17 22 19 23 29 33 36 36 31 25 30 30 31 28 33 31 29 27 29 29 32 34 36 36 34 32 30 29
1 2 4 5 2 10 14 12 10 9 10 13 17 20 18 19 19 19 27 33 40 39 30 30 25 31 34 31 32 30 34 35 31 28 30 27 27 29 35 35 32 31 31 31
8 4 3 6 8 7 4 6 11 12 15 16 18 21 18 18 25 34 32 36 35 29 27 30 33 37 33 34 32 30 29 28 31 30 27 25 27 30 34 35 32 33 33 32
14 9 4 4 5 12 12 2 2 4 14 18 17 14 18 26 36 33 28 26 30 34 37 36 35 34 32 33 30 30 32 32 30 29 26 27 30 32 37 37 36 34 32 31
7 7 2 2 4 5 3 1 2 6 13 4 11 17 20 28 17 18 35 37 29 39 37 32 32 32 30 32 28 29 33 35 34 28 22 29 32 37 41 41 36 34 33 35
3 3 9 9 6 8 4 1 5 5 6 24 29 27 28 20 24 44 41 35 38 36 33 33 33 33 30 30 26 30 33 29 26 21 16 30 32 35 37 36 36 37 37 38
2 3 3 3 5 6 2 7 5 13 32 32 31 33 33 38 43 40 36 41 40 36 36 33 34 33 33 30 28 24 33 25 19 16 19 29 32 33 32 35 38 41 42 37
2 3 2 4 5 8 16 23 26 34 31 31 31 35 36 39 39 40 43 39 38 38 39 38 36 36 31 27 23 25 31 20 15 16 19 25 27 28 36 37 46 41 39 37
3 2 3 4 4 12 25 27 26 29 28 30 33 37 33 40 37 40 37 37 37 41 42 41 38 37 33 24 22 22 22 21 21 27 25 30 30 33 44 44 41 40 39 36
5 4 5 8 16 21 13 25 26 28 30 32 34 35 34 32 34 35 35 38 40 41 43 42 41 37 30 27 23 15 22 24 33 33 34 39 43 46 44 40 36 34 34 27
1 3 2 4 22 21 23 32 30 29 33 35 34 34 33 31 33 34 35 37 39 41 39 39 39 32 43 36 34 28 30 36 37 40 46 48 44 40 40 40 37 33 25 20

GFSCGP_850_spd_060.txt.gz
Wind_Speed
9 10 12 10 6 6 6 8 9 5 4 10 12 13 15 15 19 18 18 17 16 16 16 14 11 11 10 11 10 9 9 12 19 37 36 33 32 30 31 36 42 39 40 37
9 13 8 3 6 8 9 10 11 7 6 9 13 17 16 17 16 21 19 19 16 14 14 12 11 9 9 10 12 12 10 11 14 18 24 41 36 42 35 46 43 44 47 44
10 5 6 8 9 10 11 11 8 9 10 15 13 19 9 6 7 7 10 10 11 11 11 9 9 11 13 13 15 14 14 14 14 15 18 21 23 29 27 39 45 49 46 47
7 6 7 9 9 9 12 5 6 8 10 8 1 5 9 9 6 6 5 3 5 9 9 6 5 8 11 13 13 15 15 15 14 14 16 19 22 25 31 30 30 33 45 46
1 8 10 10 7 5 8 2 8 11 13 13 16 7 4 6 7 11 3 2 3 1 2 2 5 6 8 11 14 15 16 15 15 17 16 18 22 24 24 22 33 24 35 43
15 10 9 11 6 9 1 10 12 13 10 11 10 6 6 8 7 5 4 5 2 1 2 2 4 10 12 12 13 19 20 19 16 16 19 21 21 24 25 26 27 25 23 31
17 15 12 9 11 8 10 10 8 8 8 6 5 5 8 5 2 6 8 8 7 6 5 7 11 11 13 13 13 13 16 23 21 20 19 20 23 24 26 31 31 31 27 27
15 11 14 10 13 11 8 8 8 6 7 7 4 6 7 7 5 6 6 8 11 10 8 10 11 13 15 14 14 16 17 20 24 25 24 23 24 25 24 26 31 34 36 42
8 15 7 6 5 6 4 10 5 8 15 12 10 7 10 12 6 4 8 8 10 7 11 13 15 17 16 13 15 16 18 20 22 27 30 29 28 27 27 27 28 34 39 40
4 12 5 6 4 9 14 5 5 8 7 12 8 10 8 13 1 4 4 5 7 13 17 20 21 19 18 18 17 18 18 19 21 24 29 31 30 28 28 29 29 31 35 38
7 9 10 8 12 16 9 13 9 8 10 11 12 5 7 2 6 3 4 9 19 24 23 22 25 23 23 21 21 21 23 22 22 22 25 26 31 32 29 28 30 29 32 35
2 5 11 14 13 5 12 13 12 10 10 8 10 15 7 5 2 6 16 17 17 21 22 22 24 26 26 25 24 24 23 23 23 23 24 25 26 30 32 30 30 27 27 28
2 6 8 10 9 6 11 16 16 15 13 15 11 11 4 6 13 23 23 19 19 21 21 22 24 26 26 26 26 25 25 24 24 24 24 25 26 27 32 32 30 29 26 27
5 12 13 12 12 2 6 10 10 12 10 15 20 27 20 20 19 18 21 22 23 23 23 22 23 28 29 28 27 25 26 26 24 25 25 25 26 26 31 33 31 27 26 26
10 17 17 18 18 17 18 19 19 18 21 22 22 27 23 22 22 23 26 24 28 25 27 31 32 33 34 33 29 26 26 26 25 26 27 27 25 25 27 28 30 27 26 27
7 6 8 12 15 17 19 21 21 22 22 23 24 26 24 25 20 23 21 25 27 33 37 39 43 40 34 31 29 29 29 27 24 27 29 28 26 26 26 29 27 27 27 27
4 4 4 9 6 9 13 18 14 18 20 16 19 20 20 21 21 20 24 28 35 38 39 34 32 32 28 28 30 32 30 28 27 28 29 27 26 26 27 28 27 27 28 29
9 7 2 7 10 10 1 2 10 15 16 17 19 20 20 20 25 29 33 37 33 36 38 35 36 35 34 34 33 33 31 29 28 29 28 28 25 28 27 29 28 28 28 32
13 10 4 4 7 14 17 5 7 11 17 19 19 14 24 33 38 33 33 33 33 36 38 39 39 36 39 35 31 30 31 30 29 30 27 27 24 27 27 31 31 31 33 34
6 11 4 4 5 6 5 4 5 11 16 3 17 21 26 28 17 17 36 41 38 40 38 36 36 36 33 32 31 31 30 28 31 29 28 24 24 26 28 34 33 34 36 38
3 3 8 9 7 10 7 6 10 9 8 27 31 31 33 20 27 45 47 42 40 39 39 36 39 36 35 32 28 29 30 32 31 29 27 24 23 22 33 31 35 38 41 39
3 3 4 5 4 6 6 16 5 14 33 34 35 36 37 41 45 44 40 44 43 40 40 36 34 34 36 32 29 31 29 31 34 32 27 24 23 27 30 38 40 42 43 39
3 2 4 5 5 20 22 19 26 26 31 35 37 38 41 42 40 44 41 40 41 38 38 36 36 37 37 34 28 32 31 30 27 26 25 19 21 32 38 43 41 39 38 45
5 7 2 6 5 12 24 28 26 29 35 38 39 42 39 42 43 40 41 39 39 40 40 38 36 38 38 31 27 29 27 23 23 24 20 26 36 38 40 40 40 39 45 42
3 5 4 10 16 22 18 27 32 34 37 39 39 38 41 37 38 39 38 40 41 43 42 39 37 37 34 28 27 24 21 19 19 21 38 39 37 39 38 37 36 46 41 37
4 4 3 5 26 23 25 29 33 35 40 43 38 37 35 33 36 37 39 43 43 44 46 46 41 35 34 27 25 22 16 14 15 21 36 39 43 44 44 47 43 34 34 30

GFSCGP_850_spd_063.txt.gz
Wind_Speed
18 12 14 16 16 15 14 16 13 7 10 5 14 17 18 19 21 20 21 22 21 20 19 16 11 8 3 2 5 4 4 11 23 42 38 20 26 25 31 34 34 36 36 31
10 14 16 17 7 10 14 16 16 15 10 9 16 19 19 18 18 22 22 24 22 19 16 15 14 12 6 12 12 6 7 8 13 24 49 48 36 35 26 29 29 35 35 36
14 17 10 3 11 14 15 16 15 14 9 10 18 23 24 26 29 21 20 21 18 19 13 14 14 13 8 7 11 10 11 11 10 15 22 25 42 45 39 43 43 40 37 35
11 12 3 10 13 12 15 12 12 10 10 12 2 12 9 7 9 10 10 9 13 14 15 12 12 12 9 7 5 5 10 12 7 11 11 19 21 37 51 51 42 42 43 41
15 11 10 14 13 7 12 2 9 13 14 16 20 12 15 18 16 12 9 10 9 9 9 7 6 4 4 3 4 4 6 8 9 11 14 15 24 22 26 30 28 28 30 30
17 15 11 12 14 13 10 10 15 17 15 16 20 18 14 13 15 16 9 8 6 7 6 5 3 4 5 6 6 6 6 7 12 11 10 13 19 22 22 23 24 27 27 33
21 21 21 18 15 15 13 13 12 15 13 14 5 6 12 8 6 5 3 5 6 9 9 7 7 7 8 9 10 10 8 9 10 11 14 15 18 19 22 23 25 22 23 24
17 18 18 18 17 16 12 14 11 8 11 5 11 7 11 9 11 3 7 8 7 10 9 8 8 9 11 12 12 12 13 14 13 11 14 16 20 17 20 20 19 19 23 24
12 12 7 12 13 15 12 10 10 13 19 14 16 16 12 11 8 7 8 8 6 10 10 10 13 13 13 13 14 16 15 15 15 15 15 16 18 22 23 24 25 20 21 28
16 12 9 7 10 13 12 9 6 8 13 18 16 17 13 20 17 9 6 6 5 7 11 15 19 19 19 17 17 16 17 18 18 17 18 18 19 19 21 24 27 27 28 26
13 12 15 8 11 18 11 16 16 16 10 6 11 6 11 1 5 2 4 6 9 14 17 19 21 19 21 22 21 21 21 20 21 20 19 20 21 21 22 24 25 27 29 31
9 7 12 19 14 16 15 16 15 6 14 12 14 17 12 9 5 4 8 17 16 13 17 19 19 19 20 22 25 26 25 26 25 24 22 21 22 22 24 25 27 30 27 28
5 4 7 12 13 13 13 16 17 16 14 21 14 13 2 9 9 13 17 17 17 17 18 17 22 24 23 23 25 26 28 28 28 27 26 25 24 24 25 26 26 28 26 26
7 11 15 14 14 3 7 11 12 11 10 16 19 23 21 16 15 17 21 22 23 24 21 22 25 26 28 30 31 31 31 30 30 28 29 27 26 27 25 26 26 27 26 26
9 16 18 21 21 18 17 19 19 20 19 19 22 24 22 21 20 21 20 21 22 21 28 31 29 33 37 38 37 40 41 35 32 29 29 29 28 27 26 25 27 27 28 28
5 9 14 16 17 17 18 18 19 21 23 24 25 26 25 33 21 20 21 23 20 27 31 32 36 37 35 38 38 36 37 35 33 29 31 29 28 27 27 28 28 28 29 28
6 5 6 13 10 12 12 19 14 21 16 16 21 21 17 20 18 20 23 24 27 33 39 38 37 34 33 36 34 36 33 33 30 32 32 31 29 29 29 27 27 29 30 29
13 12 7 9 13 13 3 14 19 11 13 16 19 20 20 21 26 28 31 33 37 39 33 34 37 37 37 34 37 36 38 39 32 34 34 32 30 29 29 29 31 30 30 30
10 8 5 4 8 16 15 9 11 14 18 20 22 16 20 28 35 34 31 32 33 37 40 37 37 39 41 37 41 38 39 40 41 37 35 31 29 30 30 31 34 31 30 31
6 9 7 7 5 5 10 7 10 13 17 14 19 20 24 30 17 20 31 38 42 44 39 39 42 43 42 39 36 37 39 36 35 37 34 30 30 31 32 34 32 33 31 32
4 4 11 11 7 10 8 12 21 12 13 31 30 31 32 24 26 49 45 45 43 46 43 44 39 37 38 38 40 38 34 36 34 32 32 31 32 34 32 34 35 33 32 33
4 3 5 7 6 7 14 20 10 18 31 32 36 36 40 42 45 45 48 48 45 45 43 43 41 40 39 36 34 37 38 36 32 30 31 29 32 33 32 33 30 33 33 34
2 2 3 4 5 20 21 22 26 26 31 36 38 37 41 46 48 48 46 48 46 43 44 42 40 41 39 37 34 35 38 33 29 32 32 31 35 32 29 30 32 33 34 37
7 10 3 10 6 21 25 26 24 29 35 37 40 42 46 44 44 45 42 42 42 42 40 41 41 42 40 34 35 36 32 30 32 35 36 38 36 30 30 32 31 37 43 40
4 9 8 14 16 22 14 25 29 33 35 41 41 45 39 38 41 41 43 43 43 43 44 42 43 43 42 34 32 28 28 28 33 36 36 34 32 30 31 34 39 43 41 38
2 2 3 5 23 21 27 34 36 35 39 36 46 46 41 38 40 41 41 43 45 46 47 45 42 42 42 33 29 25 24 27 31 32 29 29 27 38 36 40 36 33 34 33

GFSCGP_850_spd_069.txt.gz
Wind_Speed
16 4 7 13 15 17 17 17 18 15 11 12 15 7 8 7 12 9 15 13 13 15 11 13 20 24 22 20 22 18 19 23 28 33 26 20 31 34 34 36 30 35 30 28
6 11 14 17 19 14 14 16 9 11 11 15 13 10 5 5 6 8 13 22 24 22 20 18 17 20 17 15 15 15 16 20 29 30 35 34 26 22 35 40 41 36 31 28
10 11 15 18 13 11 8 7 6 10 15 17 12 11 5 3 8 22 28 23 32 31 29 29 23 18 16 14 14 13 13 17 20 26 30 32 29 31 30 25 33 34 33 20
10 11 16 15 11 4 8 8 12 14 10 6 5 6 5 4 8 13 29 32 23 28 29 33 36 26 22 16 12 15 12 16 18 21 26 33 39 24 32 41 29 32 35 31
16 12 12 15 13 7 10 6 4 8 14 6 12 3 5 5 15 18 17 34 26 11 11 25 31 21 13 11 10 9 15 14 14 20 23 23 23 25 23 28 35 31 44 46
15 22 10 10 16 12 10 3 5 5 3 4 11 5 16 11 15 19 7 23 22 21 20 18 17 16 14 12 13 13 14 12 13 15 18 20 22 22 22 26 27 32 31 42
6 9 11 13 6 12 16 4 2 3 1 9 2 5 14 16 18 25 16 24 24 20 25 26 23 17 11 11 12 13 13 10 8 8 12 14 17 18 19 21 28 29 32 36
3 11 4 1 2 7 10 4 5 6 4 7 4 6 8 12 23 15 24 30 24 27 26 22 19 14 15 16 16 14 8 9 9 11 11 14 15 16 17 19 21 24 22 23
1 5 2 5 5 7 2 6 19 4 5 4 5 7 9 8 18 7 13 20 20 27 29 26 25 25 19 18 20 17 17 17 19 15 15 14 13 15 15 17 21 21 21 21
3 6 9 5 8 10 9 2 1 1 3 4 5 6 4 2 7 6 9 9 14 12 9 18 22 17 17 15 20 18 17 15 13 14 16 15 19 19 16 16 20 22 23 25
3 2 6 7 2 3 3 2 3 4 4 4 2 4 3 4 3 6 10 17 9 14 11 11 12 13 9 6 18 20 19 18 17 16 15 17 17 16 17 21 21 23 23 23
0 3 2 11 15 6 3 5 3 3 7 2 4 7 7 2 4 6 10 24 21 25 15 14 25 25 24 18 14 15 12 11 10 7 10 17 19 22 27 25 24 24 26 27
6 1 3 6 0 2 3 5 7 6 2 3 1 4 2 12 2 3 1 14 28 28 27 25 28 28 27 24 24 25 25 24 24 22 23 22 21 18 19 28 26 29 32 31
3 3 5 5 8 4 3 9 9 5 4 5 10 13 10 9 9 6 16 23 18 20 20 15 17 25 15 12 12 13 14 14 13 16 22 28 32 31 27 25 29 30 31 31
1 3 5 9 13 14 15 17 11 12 14 7 13 11 4 8 2 9 2 11 18 21 25 15 22 15 25 17 14 13 12 17 21 23 25 26 26 32 35 36 36 37 36 36
1 2 6 7 12 12 15 18 14 16 18 11 14 11 14 10 15 11 6 9 8 16 19 25 26 26 26 24 23 23 26 29 30 31 32 33 34 36 42 46 46 42 38 38
3 2 5 4 10 14 7 10 7 9 6 5 2 10 13 11 9 13 11 12 14 25 25 25 24 24 26 27 32 33 29 27 25 26 32 36 37 38 37 37 27 40 39 39
3 2 2 5 7 3 6 11 9 6 6 1 9 10 12 15 21 21 27 27 18 28 32 33 33 32 33 34 34 28 28 29 31 34 36 35 37 35 32 36 39 29 31 38
2 0 2 1 2 10 4 9 9 7 5 10 13 14 19 26 30 21 18 24 31 34 34 34 35 36 36 36 35 33 32 33 36 40 41 41 42 42 41 35 36 32 29 35
3 2 4 3 4 3 5 14 20 13 5 14 22 14 15 25 14 11 27 38 41 41 41 44 50 50 47 45 43 40 38 38 40 40 38 37 40 39 36 38 42 38 25 27
0 2 4 4 4 5 12 15 18 6 6 25 26 23 26 13 17 44 38 42 42 46 50 46 42 44 44 40 36 39 40 40 41 42 42 37 40 41 42 38 33 38 41 36
4 1 3 1 2 4 17 6 3 6 20 24 27 30 33 36 40 38 52 48 53 50 50 45 41 41 42 37 34 38 39 41 38 35 33 36 38 40 38 32 34 35 40 34
2 2 2 1 4 4 15 9 12 24 24 29 33 37 37 40 38 49 56 58 51 48 46 44 40 43 43 41 37 39 44 38 34 32 34 33 31 35 34 34 34 31 33 32
3 1 2 5 4 12 25 12 27 29 32 37 39 42 30 38 51 53 56 54 52 50 49 46 44 44 47 39 35 38 38 34 32 33 33 35 34 32 28 31 31 29 31 36
3 5 5 5 4 24 7 24 32 41 36 40 40 29 38 48 50 51 53 53 52 51 51 48 44 44 46 39 39 38 35 33 34 34 32 31 31 30 31 29 31 34 36 35
3 1 1 4 14 12 23 29 39 34 36 41 37 40 47 50 53 52 54 54 53 53 54 51 48 45 45 42 44 36 35 33 31 30 30 30 33 32 31 29 31 34 38 36

GFSCGP_850_spd_072.txt.gz
Wind_Speed
9 2 6 13 10 13 8 12 15 16 15 4 6 10 10 22 19 18 12 18 16 17 20 19 14 19 26 26 28 26 21 24 35 37 34 33 32 29 30 31 32 30 30 26
4 7 14 12 12 12 14 15 17 10 7 5 7 11 8 9 8 15 12 13 17 20 23 23 22 22 27 29 28 26 21 19 29 37 36 35 32 32 34 32 31 33 30 29
9 13 10 11 13 13 15 14 6 7 4 5 4 7 7 5 7 7 12 14 16 18 20 25 26 26 27 26 25 24 20 18 21 28 32 34 31 27 31 41 39 35 31 26
8 10 9 12 11 8 6 8 7 4 3 4 3 6 6 5 8 7 17 17 17 23 28 30 30 32 31 28 24 21 20 21 19 19 22 26 31 30 31 30 32 36 42 42
12 6 7 11 5 7 4 10 6 4 2 1 4 1 9 4 10 9 11 22 29 28 34 37 39 38 31 28 25 22 20 21 22 20 23 22 23 29 32 33 24 28 28 34
9 2 1 2 10 2 5 4 6 5 2 2 7 5 9 7 5 5 9 28 34 34 32 35 42 33 28 22 19 18 17 17 21 25 22 25 23 25 27 29 30 35 37 37
8 7 7 5 6 2 6 3 3 4 4 11 5 4 17 2 7 4 18 34 29 23 29 33 39 35 28 25 19 13 11 9 10 10 15 16 18 20 21 25 26 24 23 27
3 5 6 4 3 3 4 6 5 7 3 12 5 6 6 5 8 11 27 35 24 34 35 41 38 33 28 23 19 17 14 13 12 10 11 10 11 14 16 15 16 17 20 20
4 6 3 7 3 2 1 4 2 3 4 4 5 7 8 6 2 11 18 29 13 34 34 32 29 24 21 18 19 17 18 16 17 18 16 15 17 16 15 13 12 12 13 16
3 4 6 1 3 4 6 6 4 1 4 5 4 6 5 3 4 11 13 18 26 22 6 26 26 24 25 21 22 22 23 22 20 18 15 18 17 14 14 14 14 13 15 15
3 2 5 3 4 3 1 4 2 2 2 2 3 5 3 5 4 3 9 22 12 15 21 19 7 17 23 25 30 28 28 27 22 18 15 12 13 13 12 13 15 16 17 17
1 4 3 8 12 5 3 4 3 3 3 4 2 5 6 4 6 9 9 15 19 14 11 18 19 13 14 23 26 29 31 27 23 21 20 20 20 21 23 23 23 22 23 22
5 0 3 9 4 3 1 4 4 3 2 5 2 4 2 7 9 5 11 17 23 25 31 25 15 11 13 13 17 20 24 26 25 26 26 24 24 23 23 22 18 20 23 25
9 3 5 5 7 4 5 4 7 7 3 4 5 8 9 6 8 11 13 6 18 28 33 30 27 13 14 12 8 5 14 27 28 28 28 27 27 27 27 27 28 27 26 26
5 4 4 6 10 12 13 13 12 10 10 4 3 3 2 3 6 10 15 10 7 7 10 16 17 20 15 14 15 14 24 20 16 22 24 26 28 30 32 34 35 34 35 35
3 3 2 4 13 8 13 8 8 1 2 3 5 4 2 8 11 10 17 14 17 15 17 15 18 15 19 22 28 30 33 31 31 32 32 32 32 31 33 33 33 35 37 39
2 2 3 5 7 12 3 9 5 5 2 3 2 1 5 7 7 12 18 22 23 21 13 16 17 20 24 27 26 26 29 32 33 35 35 35 35 36 37 35 36 39 40 42
3 2 2 4 6 1 5 0 4 11 5 6 6 8 8 10 18 24 26 24 19 19 26 29 32 35 40 42 40 36 33 33 32 33 35 33 30 31 33 37 42 43 41 40
7 4 1 1 1 6 9 3 6 6 4 5 7 11 17 23 28 25 18 17 27 38 44 42 43 44 48 53 53 49 43 42 41 42 42 40 39 38 37 38 40 44 41 38
2 3 4 1 2 4 2 8 14 7 5 8 12 13 13 22 16 15 26 35 41 39 37 43 48 47 47 50 49 49 53 50 55 48 43 42 41 41 42 42 41 43 41 43
3 1 4 2 3 6 5 10 12 5 6 21 20 21 24 16 19 46 42 39 37 45 53 52 52 52 52 48 42 44 45 45 43 43 46 46 47 45 42 43 42 40 34 35
3 0 2 2 3 6 8 5 1 3 17 21 24 30 31 35 42 40 40 44 55 51 49 48 49 51 49 46 41 43 45 45 43 41 42 45 42 41 41 39 40 39 36 39
1 4 3 5 5 3 7 8 3 18 19 23 30 34 35 40 43 37 49 59 58 56 53 50 49 48 48 44 42 43 46 41 36 36 39 44 44 43 37 37 35 36 34 31
4 4 2 4 1 7 25 10 21 29 28 33 35 39 42 38 38 53 60 58 52 55 53 50 50 49 46 43 43 45 42 37 35 35 36 36 34 34 33 31 29 27 31 34
3 3 1 5 5 21 0 26 29 37 38 36 40 38 33 38 47 57 55 57 55 54 53 49 47 49 49 44 41 41 39 35 34 33 33 32 31 30 31 30 30 33 33 32
2 2 2 4 5 6 21 29 34 34 38 39 40 38 36 45 53 55 57 56 52 52 54 52 48 48 50 43 36 35 34 34 33 31 30 31 30 29 30 30 29 28 28 27

GFSCGP_850_spd_075.txt.gz
Wind_Speed
2 2 6 10 8 8 5 5 12 13 15 4 13 17 11 13 16 21 28 24 30 31 26 28 32 33 31 30 29 28 27 25 30 32 34 33 35 33 34 45 29 30 32 31
4 7 10 5 6 7 8 12 14 12 14 6 9 11 14 6 8 20 25 22 27 28 27 27 31 31 33 31 30 28 28 29 28 29 33 33 32 28 31 33 29 23 40 28
7 9 1 4 7 8 7 6 9 12 7 5 2 7 8 5 7 13 11 8 12 22 24 28 29 30 31 31 30 29 29 30 29 31 33 36 34 33 31 28 31 36 37 33
6 11 10 11 6 3 3 4 7 7 3 7 3 11 10 7 7 5 14 13 16 14 15 23 27 30 32 32 33 31 28 26 27 29 32 35 36 39 35 28 27 36 32 29
11 5 6 6 8 3 7 4 5 4 4 2 3 1 9 4 7 10 10 17 19 23 20 21 26 33 35 35 34 28 24 23 22 22 21 21 25 34 33 30 28 26 28 34
6 0 2 3 2 4 3 3 2 1 3 2 6 7 10 12 8 5 5 15 23 29 33 33 29 31 42 39 35 30 27 25 24 25 23 21 20 19 22 26 27 27 27 27
0 2 2 2 2 2 8 6 4 4 2 11 5 4 17 6 8 6 5 19 26 30 36 40 31 31 44 39 37 33 26 22 18 18 19 20 21 19 20 21 20 18 16 18
2 5 2 2 3 5 1 5 4 6 4 7 5 7 6 5 3 4 12 17 21 23 27 33 32 31 43 40 33 27 21 19 18 18 17 17 15 10 12 14 14 13 12 13
2 4 3 1 3 7 4 5 4 3 1 2 4 7 10 6 1 3 10 21 24 17 12 4 19 38 40 32 27 24 21 16 14 12 10 11 12 13 12 11 10 9 10 9
3 3 4 3 1 5 4 3 2 2 4 4 4 4 8 10 6 4 5 5 11 21 21 13 4 13 27 29 24 21 19 13 11 12 14 12 14 14 11 11 10 9 7 8
3 3 4 3 2 3 3 2 2 1 3 4 1 4 4 4 9 8 7 5 4 10 13 16 17 7 9 18 28 27 20 18 20 19 17 14 12 13 11 10 8 7 7 6
2 4 3 8 7 8 4 3 5 2 3 3 2 5 6 10 16 13 17 20 15 12 10 12 19 17 15 9 17 28 30 30 26 23 23 20 16 16 17 16 15 16 15 15
6 1 3 8 5 5 2 2 2 2 1 4 1 5 1 3 5 14 16 21 15 17 26 28 23 18 18 15 15 17 27 34 31 31 29 25 23 23 23 23 20 19 17 14
9 4 6 6 6 4 6 6 6 5 3 3 8 12 9 5 6 12 20 21 18 16 15 26 33 35 24 23 19 17 16 18 30 38 35 33 31 31 30 27 25 23 21 21
3 5 5 7 9 8 9 12 10 8 14 8 9 10 4 6 5 9 19 24 21 21 22 22 20 21 19 18 20 19 22 21 15 22 35 34 32 30 30 29 29 27 26 27
1 3 1 4 10 7 9 5 9 7 5 9 13 12 4 8 9 12 19 22 24 28 29 29 27 22 21 19 18 20 21 21 21 23 23 24 28 28 29 28 26 27 30 31
3 4 2 4 4 8 3 1 2 4 5 5 5 4 6 9 8 12 20 26 28 32 32 31 23 25 26 26 26 28 29 27 25 25 27 33 34 37 38 36 35 36 35 34
5 4 2 3 5 2 2 4 6 10 12 4 5 6 10 15 24 26 28 32 31 29 29 28 36 42 45 45 44 43 44 45 42 39 37 36 40 40 40 37 36 34 34 36
6 4 1 2 1 6 4 4 4 7 13 4 5 11 17 22 24 25 22 22 27 31 37 41 42 41 43 48 51 51 51 50 49 54 49 40 35 34 39 39 37 36 36 37
5 1 4 2 1 4 4 3 11 5 7 3 7 9 15 23 14 16 24 34 41 43 44 40 41 36 42 50 51 53 55 48 48 49 50 45 49 46 43 44 42 41 41 39
2 2 4 3 3 7 2 6 9 1 4 16 17 21 23 16 20 42 45 44 37 42 39 43 55 62 54 51 53 53 50 53 53 48 45 43 46 49 54 48 45 41 40 41
4 2 2 2 2 6 2 2 1 4 16 21 23 27 32 36 40 42 44 45 51 51 53 55 54 54 53 51 49 53 52 51 49 46 42 37 37 45 42 45 44 44 45 43
2 4 3 6 5 2 1 7 14 13 19 23 28 33 36 40 45 42 47 54 56 56 55 53 52 54 53 49 49 54 52 45 46 44 41 39 44 40 39 40 41 40 39 38
0 2 1 4 2 4 21 3 16 21 25 31 32 36 42 44 38 55 49 53 55 56 53 51 48 50 53 50 47 49 50 44 39 40 38 35 34 35 38 37 37 37 39 34
3 2 1 5 6 18 3 25 32 34 35 35 38 39 38 46 43 50 54 55 54 54 51 50 49 49 53 54 48 43 40 39 36 33 34 34 33 34 35 35 36 35 34 34
3 3 2 4 4 5 20 31 30 31 33 36 38 40 43 37 49 56 55 52 52 52 53 49 49 49 51 44 45 34 31 32 32 34 34 34 32 32 32 30 30 30 30 26